FW1757 Weather Reports


time (UTC)temp
F
wind
direction
speed
knots
gust
knots
rain 1hr
in
rain 24hr
in
rain mn
in
humidity
%
barometer
mb
20260902123039 58 148 0.0 0.0 0.00 0.00 0.00 71 1008.0
20260902122539 58 221 0.0 0.0 0.00 0.00 0.00 72 1008.0
20260902122037 58 221 0.0 0.0 0.00 0.00 0.00 71 1008.0
20260902121539 58 221 0.0 0.0 0.00 0.00 0.00 71 1007.8
20260902121037 58 221 0.0 0.0 0.00 0.00 0.00 71 1007.9
20260902120537 58 221 0.0 0.0 0.00 0.00 0.00 71 1007.9
20260902120036 58 234 0.0 0.0 0.00 0.00 0.00 71 1008.0
20260902115535 58 242 0.0 0.0 0.00 0.00 0.00 71 1008.0
20260902115035 58 227 0.0 0.0 0.00 0.00 0.00 71 1008.1
20260902114535 59 222 0.0 0.0 0.00 0.00 0.00 71 1008.0
20260902114034 59 222 0.0 0.0 0.00 0.00 0.00 71 1008.1
20260902113533 59 222 0.0 0.0 0.00 0.00 0.00 71 1008.0
20260902113034 59 222 0.0 0.0 0.00 0.00 0.00 71 1008.0
20260902112533 59 259 0.0 0.0 0.00 0.00 0.00 71 1008.1
20260902112033 59 259 0.0 0.0 0.00 0.00 0.00 71 1008.1
20260902111533 59 260 0.0 0.0 0.00 0.00 0.00 71 1008.1
20260902111158 59 263 0.0 0.0 0.00 0.00 0.00 71 1008.0
20260902110534 59 296 0.0 0.0 0.00 0.00 0.00 71 1008.1
20260902110044 59 296 0.0 0.0 0.00 0.00 0.00 71 1008.0
20260902105532 59 266 0.0 0.0 0.00 0.00 0.00 71 1008.0
20260902105032 59 263 0.0 0.0 0.00 0.00 0.00 71 1008.1
20260902104550 59 288 0.0 0.0 0.00 0.00 0.00 72 1007.9
20260902104030 59 267 0.0 0.0 0.00 0.00 0.00 72 1007.9
20260902103529 59 273 0.0 0.0 0.00 0.00 0.00 71 1008.1
20260902103046 59 264 0.0 0.0 0.00 0.00 0.00 71 1008.2
20260902102530 60 248 0.0 0.0 0.00 0.00 0.00 71 1008.1
20260902102029 60 213 0.0 0.0 0.00 0.00 0.00 71 1008.2
20260902101528 60 223 0.0 0.0 0.00 0.00 0.00 71 1008.2
20260902101030 60 271 0.0 0.0 0.00 0.00 0.00 71 1008.2
20260902100528 60 263 0.0 0.0 0.00 0.00 0.00 71 1008.2
20260902100028 59 196 0.0 0.0 0.00 0.00 0.00 71 1008.3
20260902095528 59 252 0.0 0.0 0.00 0.00 0.00 71 1008.3
20260902095027 59 277 0.0 0.0 0.00 0.00 0.00 71 1008.3
20260902094528 59 254 0.0 0.0 0.00 0.00 0.00 71 1008.2
20260902094027 59 267 0.0 0.0 0.00 0.00 0.00 71 1008.3
20260902093527 59 272 0.0 0.0 0.00 0.00 0.00 71 1008.1
20260902093026 60 293 0.0 0.0 0.00 0.00 0.00 71 1008.3
20260902092528 60 298 0.0 0.0 0.00 0.00 0.00 71 1008.4
20260902092026 60 251 0.0 0.0 0.00 0.00 0.00 71 1008.4
20260902091527 60 263 0.0 0.0 0.00 0.00 0.00 71 1008.3
20260902091026 60 268 0.0 0.0 0.00 0.00 0.00 71 1008.4
20260902090525 60 286 0.0 0.0 0.00 0.00 0.00 71 1008.4
20260902090029 60 288 0.0 0.0 0.00 0.00 0.00 71 1008.4
20260902085528 60 281 0.0 0.0 0.00 0.00 0.00 71 1008.4
20260902085024 60 290 0.0 0.0 0.00 0.00 0.00 71 1008.3
20260902084534 60 262 0.0 0.0 0.00 0.00 0.00 71 1008.4
20260902084027 60 248 0.0 0.0 0.00 0.00 0.00 71 1008.4
20260902083528 60 306 0.0 0.0 0.00 0.00 0.00 71 1008.4
20260902083023 60 299 0.0 0.0 0.00 0.00 0.00 71 1008.3
20260902082524 60 286 0.0 0.0 0.00 0.00 0.00 71 1008.4
20260902082022 60 283 0.0 0.0 0.00 0.00 0.00 71 1008.4
20260902081523 60 272 0.0 0.0 0.00 0.00 0.00 71 1008.4
20260902081023 60 271 0.0 0.0 0.00 0.00 0.00 71 1008.3
20260902080522 60 259 0.0 0.0 0.00 0.00 0.00 71 1008.3
20260902080023 60 259 0.0 0.0 0.00 0.00 0.00 70 1008.3
20260902075520 60 243 0.0 0.0 0.00 0.00 0.00 71 1008.4
20260902075020 60 253 0.0 0.0 0.00 0.00 0.00 71 1008.5
20260902074520 61 229 0.0 0.0 0.00 0.00 0.00 71 1008.6
20260902074019 61 295 0.0 0.0 0.00 0.00 0.00 70 1008.7
20260902073520 61 282 0.0 0.0 0.00 0.00 0.00 70 1008.5
20260902073018 61 281 0.0 0.0 0.00 0.00 0.00 70 1008.5
20260902072518 61 293 0.0 0.0 0.00 0.00 0.00 70 1008.5
20260902072017 61 286 0.0 0.0 0.00 0.00 0.00 70 1008.4
20260902071517 61 270 0.0 0.0 0.00 0.00 0.00 70 1008.6
20260902071016 61 292 0.0 0.0 0.00 0.00 0.00 69 1008.7
20260902070514 62 302 0.0 0.0 0.00 0.00 0.00 69 1008.7
20260902070022 62 300 0.0 0.0 0.00 0.00 0.00 69 1008.6
20260902065513 62 317 0.0 0.0 0.00 0.00 0.00 69 1008.4
20260902065015 62 298 0.0 0.0 0.00 0.00 0.00 69 1008.6
20260902064514 62 301 0.0 0.0 0.00 0.00 0.00 68 1008.5
20260902064012 62 287 0.0 0.0 0.00 0.00 0.00 68 1008.6
20260902063513 62 304 0.0 0.0 0.00 0.00 0.00 68 1008.8
20260902063035 63 290 0.0 0.0 0.00 0.00 0.00 68 1008.8
20260902062513 63 248 0.0 0.0 0.00 0.00 0.00 68 1008.6
20260902062012 63 254 0.0 0.0 0.00 0.00 0.00 68 1008.6
20260902061512 63 284 0.0 0.0 0.00 0.00 0.00 67 1008.5
20260902061012 63 275 0.0 0.0 0.00 0.00 0.00 67 1008.5
20260902060512 63 290 0.0 0.0 0.00 0.00 0.00 67 1008.6
20260902060012 63 275 0.0 0.0 0.00 0.00 0.00 67 1008.7
20260902055511 63 286 0.0 0.0 0.00 0.00 0.00 67 1008.5
20260902055011 63 280 0.0 0.0 0.00 0.00 0.00 67 1008.7
20260902054513 63 287 0.0 0.0 0.00 0.00 0.00 67 1008.9
20260902054011 63 212 0.0 0.0 0.00 0.00 0.00 67 1008.6
20260902053511 63 269 0.0 0.0 0.00 0.00 0.00 67 1008.4
20260902053011 63 299 0.0 0.0 0.00 0.00 0.00 67 1008.5
20260902052510 63 246 0.0 0.0 0.00 0.00 0.00 67 1008.5
20260902052010 63 312 0.0 0.0 0.00 0.00 0.00 67 1008.5
20260902051511 63 275 0.0 0.0 0.00 0.00 0.00 66 1008.6
20260902051011 63 269 0.0 0.0 0.00 0.00 0.00 66 1008.6
20260902050511 64 279 0.0 0.0 0.00 0.00 0.00 66 1008.9
20260902050012 64 239 0.0 0.0 0.00 0.00 0.00 66 1008.7
20260902045508 64 286 0.0 0.0 0.00 0.00 0.00 65 1008.6
20260902045008 64 292 0.0 0.0 0.00 0.00 0.00 65 1008.6
20260902044508 64 255 0.0 0.0 0.00 0.00 0.00 65 1008.4
20260902044008 64 285 0.0 0.0 0.00 0.00 0.00 64 1008.3
20260902043507 64 322 0.0 0.0 0.00 0.00 0.00 64 1008.3
20260902043007 64 286 0.0 0.0 0.00 0.00 0.00 64 1008.3
20260902042508 64 259 0.0 0.0 0.00 0.00 0.00 64 1008.3
20260902042007 64 302 0.0 0.0 0.00 0.00 0.00 64 1008.3
20260902041505 64 279 0.0 0.0 0.00 0.00 0.00 64 1008.1
20260902041005 64 282 0.0 0.0 0.00 0.00 0.00 64 1007.9
20260902040505 64 317 0.0 0.0 0.00 0.00 0.00 64 1007.8
20260902040005 64 286 0.0 0.0 0.00 0.00 0.00 64 1007.7
20260902035504 64 294 0.0 0.0 0.00 0.00 0.00 64 1007.9
20260902035004 64 298 0.0 0.0 0.00 0.00 0.00 65 1007.8
20260902034505 64 248 0.0 0.0 0.00 0.00 0.00 65 1007.6
20260902034004 64 261 0.0 0.0 0.00 0.00 0.00 65 1007.7
20260902033504 64 257 0.0 0.0 0.00 0.00 0.00 65 1007.6
20260902033004 64 311 0.0 0.0 0.00 0.00 0.00 65 1007.4
20260902032506 64 318 0.0 0.0 0.00 0.00 0.00 65 1007.5
20260902032003 64 283 0.0 0.0 0.00 0.00 0.00 65 1007.6
20260902031515 64 300 0.0 0.0 0.00 0.00 0.00 65 1007.6
20260902031003 64 288 0.0 0.0 0.00 0.00 0.00 64 1007.6
20260902030507 64 288 0.0 0.0 0.00 0.00 0.00 64 1007.6
20260902030004 65 273 0.0 0.0 0.00 0.00 0.00 64 1007.8
20260902025604 65 278 0.0 0.0 0.00 0.00 0.00 64 1007.7
20260902025002 65 275 0.0 0.0 0.00 0.00 0.00 64 1007.5
20260902024502 65 269 0.0 0.0 0.00 0.00 0.00 64 1007.4
20260902024001 65 308 0.0 0.0 0.00 0.00 0.00 63 1007.4
20260902023501 65 277 0.0 0.0 0.00 0.00 0.00 63 1007.3
20260902023008 65 267 0.0 0.0 0.00 0.00 0.00 63 1007.1
20260902022502 65 271 0.0 0.0 0.00 0.00 0.00 63 1007.0
20260902022004 65 292 0.0 0.0 0.00 0.00 0.00 63 1007.0
20260902021504 65 281 0.0 0.0 0.00 0.00 0.00 63 1006.9
20260902021001 65 308 0.0 0.0 0.00 0.00 0.00 63 1007.3
20260902020501 66 273 0.0 0.0 0.00 0.00 0.00 63 1007.0
20260902020001 66 322 0.0 0.0 0.00 0.00 0.00 62 1007.1
20260902015603 66 296 0.0 0.0 0.00 0.00 0.00 62 1006.9
20260902015101 66 244 0.0 0.0 0.00 0.00 0.00 61 1007.0
20260902014600 66 261 0.0 0.0 0.00 0.00 0.00 60 1006.9
20260902014059 66 252 0.0 0.0 0.00 0.00 0.00 60 1006.8
20260902013600 67 288 0.0 0.0 0.00 0.00 0.00 59 1006.7
20260902013110 67 317 0.0 0.0 0.00 0.00 0.00 59 1006.7
20260902012600 67 250 0.0 0.0 0.00 0.00 0.00 58 1006.7
20260902012059 67 289 0.0 0.0 0.00 0.00 0.00 58 1006.7
20260902011559 68 285 0.0 0.0 0.00 0.00 0.00 59 1006.7
20260902011059 67 293 0.0 0.0 0.00 0.00 0.00 59 1006.9
20260902010601 67 277 0.0 0.0 0.00 0.00 0.00 59 1006.7
20260902010500 67 262 0.0 0.0 0.00 0.00 0.00 59 1006.8
20260902010105 67 278 0.0 0.0 0.00 0.00 0.00 59 1006.6
20260902005558 67 285 0.0 0.0 0.00 0.00 0.00 59 1006.6
20260902005058 67 305 0.0 0.0 0.00 0.00 0.00 59 1006.5
20260902004558 67 300 0.0 0.0 0.00 0.00 0.00 59 1006.6
20260902004059 67 318 0.0 0.0 0.00 0.00 0.00 59 1006.6
20260902003557 68 296 0.0 0.0 0.00 0.00 0.00 59 1006.6
20260902003057 68 275 0.0 0.0 0.00 0.00 0.00 59 1006.4
20260902002558 68 288 0.0 0.0 0.00 0.00 0.00 59 1006.4
20260902002056 68 263 0.0 0.0 0.00 0.00 0.00 60 1006.5
20260902001602 67 304 0.0 0.0 0.00 0.00 0.00 60 1006.4
20260902001056 67 319 0.0 0.0 0.00 0.00 0.00 61 1006.3
20260902000556 67 293 0.0 0.0 0.00 0.00 0.00 61 1006.4
20260902000057 67 254 0.0 0.0 0.00 0.00 0.00 61 1006.4
20260901235557 67 292 0.0 0.0 0.00 0.00 0.00 60 1006.5
20260901235056 67 269 0.0 0.0 0.00 0.00 0.00 59 1006.5
20260901234657 67 319 0.0 0.0 0.00 0.00 0.00 60 1006.4
20260901234057 67 279 0.0 0.0 0.00 0.00 0.00 60 1006.5
20260901233555 67 282 0.0 0.0 0.00 0.00 0.00 60 1006.6
20260901233055 67 274 0.0 0.0 0.00 0.00 0.00 60 1006.6
20260901232555 67 279 0.0 0.0 0.00 0.00 0.00 60 1006.6
20260901232057 68 271 0.0 0.0 0.00 0.00 0.00 59 1006.7
20260901231604 68 247 0.0 0.0 0.00 0.00 0.00 58 1006.7
20260901231054 68 306 0.0 0.0 0.00 0.00 0.00 58 1006.6
20260901230554 68 288 0.0 0.0 0.00 0.00 0.00 59 1006.6
20260901230107 68 300 0.0 0.0 0.00 0.00 0.00 59 1006.6
20260901225554 68 288 0.0 0.0 0.00 0.00 0.00 59 1006.6
20260901225053 68 232 0.0 0.0 0.00 0.00 0.00 59 1006.7
20260901224554 68 295 0.0 0.0 0.00 0.00 0.00 59 1006.5
20260901224058 68 221 0.0 0.0 0.00 0.00 0.00 59 1006.6
20260901223559 69 290 0.0 0.0 0.00 0.00 0.00 58 1006.5
20260901223053 69 277 0.0 0.0 0.00 0.00 0.00 57 1006.6
20260901222555 69 279 0.0 0.0 0.00 0.00 0.00 57 1006.7
20260901222052 70 294 0.0 0.0 0.00 0.00 0.00 56 1006.7
20260901221606 70 286 0.0 0.0 0.00 0.00 0.00 55 1006.6
20260901221053 70 264 0.0 0.0 0.00 0.00 0.00 55 1006.5
20260901220555 71 283 0.0 0.0 0.00 0.00 0.00 54 1006.6
20260901220052 71 288 0.0 0.0 0.00 0.00 0.00 55 1006.4
20260901215552 71 232 0.0 0.0 0.00 0.00 0.00 55 1006.5
20260901215051 70 262 0.0 0.0 0.00 0.00 0.00 55 1006.5
20260901214551 70 321 0.0 0.0 0.00 0.00 0.00 56 1006.5
20260901214052 70 303 0.0 0.0 0.00 0.00 0.00 56 1006.5
20260901213551 70 291 0.0 0.0 0.00 0.00 0.00 56 1006.5
20260901213053 70 294 0.0 0.0 0.00 0.00 0.00 57 1006.5
20260901212548 69 300 0.0 0.0 0.00 0.00 0.00 57 1006.6
20260901212049 69 275 0.0 0.0 0.00 0.00 0.00 57 1006.8
20260901211549 69 265 0.0 0.0 0.00 0.00 0.00 57 1006.6
20260901211049 69 267 0.0 0.0 0.00 0.00 0.00 57 1006.6
20260901210551 69 280 0.0 0.0 0.00 0.00 0.00 57 1006.7
20260901210048 69 252 0.0 0.0 0.00 0.00 0.00 57 1006.6
20260901205548 69 300 0.0 0.0 0.00 0.00 0.00 58 1006.6
20260901205047 69 302 0.0 0.0 0.00 0.00 0.00 57 1006.6
20260901204546 69 277 0.0 0.0 0.00 0.00 0.00 57 1006.7
20260901204046 69 314 0.0 0.0 0.00 0.00 0.00 57 1006.8
20260901203548 69 292 0.0 0.0 0.00 0.00 0.00 57 1006.8
20260901203054 69 248 0.0 0.0 0.00 0.00 0.00 57 1006.9
20260901202545 69 272 0.0 0.0 0.00 0.00 0.00 58 1006.9
20260901202045 69 207 0.0 0.0 0.00 0.00 0.00 57 1006.9
20260901201550 69 243 0.0 0.0 0.00 0.00 0.00 56 1007.0
20260901201046 70 305 0.0 0.0 0.00 0.00 0.00 56 1006.9
20260901200545 70 297 0.0 0.0 0.00 0.00 0.00 56 1006.8
20260901200044 69 290 0.0 0.0 0.00 0.00 0.00 56 1006.9
20260901195544 69 311 0.0 0.0 0.00 0.00 0.00 57 1006.9
20260901195042 69 313 0.0 0.0 0.00 0.00 0.00 58 1007.0
20260901194543 69 292 0.0 0.0 0.00 0.00 0.00 56 1007.1
20260901194042 69 284 0.0 0.0 0.00 0.00 0.00 57 1007.1
20260901193540 69 297 0.0 0.0 0.00 0.00 0.00 58 1007.3
20260901193039 68 313 0.0 0.0 0.00 0.00 0.00 58 1007.5
20260901192538 68 280 0.0 0.0 0.00 0.00 0.00 58 1007.5
20260901192038 68 303 0.0 0.0 0.00 0.00 0.00 59 1007.7
20260901191542 67 287 0.0 0.0 0.00 0.00 0.00 59 1007.7
20260901191039 67 246 0.0 0.0 0.00 0.00 0.00 59 1007.8
20260901190537 67 308 0.0 0.0 0.00 0.00 0.00 59 1007.9
20260901190039 67 286 0.0 0.0 0.00 0.00 0.00 60 1007.8
20260901185536 67 300 0.0 0.0 0.00 0.00 0.00 60 1007.8
20260901185036 67 267 0.0 0.0 0.00 0.00 0.00 61 1007.9
20260901184534 66 292 0.0 0.0 0.00 0.00 0.00 61 1007.8
20260901184034 66 284 0.0 0.0 0.00 0.00 0.00 61 1007.9
20260901183537 66 279 0.0 0.0 0.00 0.00 0.00 62 1007.9
20260901183056 66 291 0.0 0.0 0.00 0.00 0.00 62 1007.9
20260901182533 66 264 0.0 0.0 0.00 0.00 0.00 63 1007.9
20260901182034 66 289 0.0 0.0 0.00 0.00 0.00 63 1007.9
20260901181534 65 278 0.0 0.0 0.00 0.00 0.00 63 1007.9
20260901181034 65 288 0.0 0.0 0.00 0.00 0.00 63 1008.0
20260901180533 65 246 0.0 0.0 0.00 0.00 0.00 64 1008.1
20260901180033 65 268 0.0 0.0 0.00 0.00 0.00 65 1008.0
20260901175533 64 250 0.0 0.0 0.00 0.00 0.00 66 1008.0
20260901175032 64 290 0.0 0.0 0.00 0.00 0.00 65 1008.1
20260901174532 64 298 0.0 0.0 0.00 0.00 0.00 66 1008.0
20260901174031 64 284 0.0 0.0 0.00 0.00 0.00 66 1008.0
20260901173531 63 265 0.0 0.0 0.00 0.00 0.00 67 1007.8
20260901173031 63 258 0.0 0.0 0.00 0.00 0.00 67 1007.9
20260901172533 63 298 0.0 0.0 0.00 0.00 0.00 67 1007.9
20260901172031 63 252 0.0 0.0 0.00 0.00 0.00 68 1007.9
20260901171546 62 275 0.0 0.0 0.00 0.00 0.00 68 1008.0
20260901171034 62 271 0.0 0.0 0.00 0.00 0.00 68 1007.9
20260901170530 62 286 0.0 0.0 0.00 0.00 0.00 68 1007.8
20260901170043 62 289 0.0 0.0 0.00 0.00 0.00 69 1007.9
20260901165530 62 294 0.0 0.0 0.00 0.00 0.00 68 1007.9
20260901165031 62 321 0.0 0.0 0.00 0.00 0.00 69 1007.8
20260901164530 62 263 0.0 0.0 0.00 0.00 0.00 69 1007.9
20260901164030 62 286 0.0 0.0 0.00 0.00 0.00 69 1008.0
20260901163529 62 228 0.0 0.0 0.00 0.00 0.00 70 1007.9
20260901163038 62 315 0.0 0.0 0.00 0.00 0.00 70 1008.0
20260901162529 62 293 0.0 0.0 0.00 0.00 0.00 70 1007.9
20260901162032 62 296 0.0 0.0 0.00 0.00 0.00 70 1008.0
20260901161530 61 321 0.0 0.0 0.00 0.00 0.00 71 1007.8
20260901161030 61 261 0.0 0.0 0.00 0.00 0.00 71 1008.0
20260901160528 61 278 0.0 0.0 0.00 0.00 0.00 71 1007.8
20260901160032 61 308 0.0 0.0 0.00 0.00 0.00 71 1007.8
20260901155528 61 265 0.0 0.0 0.00 0.00 0.00 71 1007.9
20260901155027 61 278 0.0 0.0 0.00 0.00 0.00 71 1007.9
20260901154527 61 336 0.0 0.0 0.00 0.00 0.00 71 1007.9
20260901154028 60 257 0.0 0.0 0.00 0.00 0.00 71 1007.9
20260901153529 60 263 0.0 0.0 0.00 0.00 0.00 71 1007.7
20260901153029 60 282 0.0 0.0 0.00 0.00 0.00 71 1007.9
20260901152529 60 250 0.0 0.0 0.00 0.00 0.00 71 1007.8
20260901152026 60 248 0.0 0.0 0.00 0.00 0.00 71 1007.8
20260901151526 60 236 0.0 0.0 0.00 0.00 0.00 71 1008.0
20260901151026 60 236 0.0 0.0 0.00 0.00 0.00 71 1007.8
20260901150526 60 240 0.0 0.0 0.00 0.00 0.00 71 1007.7
20260901150025 60 285 0.0 0.0 0.00 0.00 0.00 71 1007.8
20260901145525 60 261 0.0 0.0 0.00 0.00 0.00 71 1007.8
20260901145024 60 267 0.0 0.0 0.00 0.00 0.00 71 1007.7
20260901144523 60 271 0.0 0.0 0.00 0.00 0.00 71 1007.6
20260901144023 60 244 0.0 0.0 0.00 0.00 0.00 71 1007.7
20260901143523 61 211 0.0 0.0 0.00 0.00 0.00 71 1007.6
20260901143022 61 237 0.0 0.0 0.00 0.00 0.00 71 1007.6
20260901142521 61 244 0.0 0.0 0.00 0.00 0.00 71 1007.5
20260901142024 61 254 0.0 0.0 0.00 0.00 0.00 71 1007.6
20260901141531 61 242 0.0 0.0 0.00 0.00 0.00 71 1007.5
20260901141023 61 232 0.0 0.0 0.00 0.00 0.00 71 1007.5
20260901140520 61 205 0.0 0.0 0.00 0.00 0.00 71 1007.3
20260901140022 61 234 0.0 0.0 0.00 0.00 0.00 71 1007.3
20260901135521 61 287 0.0 0.0 0.00 0.00 0.00 71 1007.2
20260901135019 61 261 0.0 0.0 0.00 0.00 0.00 71 1007.3
20260901134518 61 281 0.0 0.0 0.00 0.00 0.00 70 1007.3
20260901134017 61 241 0.0 0.0 0.00 0.00 0.00 70 1007.1
20260901133520 61 265 0.0 0.0 0.00 0.00 0.00 70 1007.1
20260901133018 61 300 0.0 0.0 0.00 0.00 0.00 70 1007.0
20260901132515 61 252 0.0 0.0 0.00 0.00 0.00 70 1006.9
20260901132018 61 286 0.0 0.0 0.00 0.00 0.00 70 1006.9
20260901131518 61 274 0.0 0.0 0.00 0.00 0.00 70 1006.9
20260901131019 62 292 0.0 0.0 0.00 0.00 0.00 70 1006.9
20260901130615 62 254 0.0 0.0 0.00 0.00 0.00 70 1006.8
20260901130013 62 301 0.0 0.0 0.00 0.00 0.00 70 1006.8
20260901125511 62 286 0.0 0.0 0.00 0.00 0.00 69 1006.7
20260901125011 62 263 0.0 0.0 0.00 0.00 0.00 69 1006.8
20260901124510 62 248 0.0 0.0 0.00 0.00 0.00 69 1006.7
20260901124008 62 233 0.0 0.0 0.00 0.00 0.00 69 1006.9
20260901123508 63 247 0.0 0.0 0.00 0.00 0.00 69 1006.6